{"data":{"norad_id":67588,"intl_designator":"2026-017A","name":"GPS BIII-9  (PRN 20)","alt_names":[],"object_type":"PAYLOAD","status":"ACTIVE","operator":null,"country":"US","launch_date":"2026-01-28","launch_site_code":"AFETR","launch_vehicle":null,"mission":null,"orbit_class":"UNKNOWN","rcs_meters":null,"size_class":null,"mass_kg":null,"dimensions":null,"purposes":["nav"],"wikipedia_slug":null,"has_3d_model":false,"image_url":null,"decayed_at":null,"tle_current":{"epoch":"2026-05-24T18:21:31.942656Z","epoch_age_seconds":96176,"freshness":"FRESH","line1":"1 67588U 26017A   26144.76495304 -.00000008  00000+0  00000+0 0  9992","line2":"2 67588  55.0742  89.6948 0022702 256.4817 103.2392  2.00571625431140","mean_motion":2.00571625,"eccentricity":0.0022702,"inclination_deg":55.0742,"raan_deg":89.6948,"arg_perigee_deg":256.4817,"mean_anomaly_deg":103.2392,"bstar":0,"rev_number":43114,"period_min":717.94801483011,"perigee_km":20121.207007481,"apogee_km":20241.798395582,"semimajor_km":26559.639701532,"source":"CELESTRAK","updated_at":"2026-05-25T13:38:23.769373Z"}}}